Regional Weather Roundup
Issued by NWS

Home | Current Version | Previous Version | Graphics & Text | Print | Product List | Glossary On
Versions: 1 2 3 4 5 6 7 8 9 10 11 12 13 14 15 16 17 18 19 20 21 22 23 24 25 26 27 28 29 30 31 32 33 34 35 36 37 38 39 40 41 42 43 44 45 46 47 48 49 50
000
ASUS43 KLOT 111102
RWRIL

ILLINOIS REGIONAL WEATHER ROUNDUP
NATIONAL WEATHER SERVICE CHICAGO/ROMEOVILLE IL
500 AM CST SUN DEC 11 2016

NOTE: "FAIR" INDICATES FEW OR NO CLOUDS BELOW 12,000 FEET WITH NO
SIGNIFICANT WEATHER AND/OR OBSTRUCTIONS TO VISIBILITY.

* THESE STATIONS ARE NOT UNDER NWS QUALITY CONTROL. THEY ALSO MAY NOT
  REPORT WEATHER SUCH AS PRECIPITATION OR FOG.

ILZ001-002-007-009-015-016-024-111200-
NORTHWEST ILLINOIS

CITY           SKY/WX    TMP DP  RH WIND       PRES   REMARKS
MOLINE         CLOUDY    29  22  75 E8        29.99F WCI  21
STERLING*      CLOUDY    26  23  88 E12       30.03F WCI  16
SAVANNA*       CLOUDY    26  23  86 E12       30.01F WCI  16
$$

ILZ003-004-008-010-011-017-018-111200-
NORTH CENTRAL ILLINOIS

CITY           SKY/WX    TMP DP  RH WIND       PRES   REMARKS
ROCKFORD       LGT SNOW  25  22  88 SE15      30.07F FOG     WCI  13
FREEPORT*      LGT SNOW  24  22  91 SE15      30.06F WCI  12
ROCHELLE*      CLOUDY    26  23  89 SE18      30.06F FOG     WCI  12
$$

ILZ005-006-012>014-019>023-111200-
NORTHEAST ILLINOIS

CITY           SKY/WX    TMP DP  RH WIND       PRES   REMARKS
CHICAGO-OHARE  LGT SNOW  25  22  88 SE13      30.11F FOG     WCI  14
CHICAGO-MIDWAY CLOUDY    27  21  78 SE8       30.14F WCI  19
AURORA         LGT SNOW  26  22  84 SE14      30.09F FOG     WCI  14
LANSING*       FLURRIES  26  24  95 SE8       30.15F WCI  17
WAUKEGAN       LGT SNOW  28  25  88 S10       30.10F FOG     WCI  19
DUPAGE AIRPORT CLOUDY    25  21  85 SE10      30.09F WCI  15
KANKAKEE*      CLOUDY    27  23  85 SE12G17   30.14F WCI  17
WHEELING       LGT SNOW  25  23  92 SE9       30.13F FOG     WCI  15
MORRIS*        FLURRIES  27  23  85 SE12      30.09F WCI  17
NORTHERLY ISL    N/A     28  25  88 SE15        N/A  WCI  17
$$

LMZ740>746-111200-
SOUTHERN LAKE MICHIGAN

STATION/POSITION SKY/WX   TEMP    WIND        PRES    VSBY  WAVE
                          AIR SEA DIR/SP/G                  HT/PER
                          (F)     (DEG/KT/KT) (MB)    (MI)  (FT/S)
BURNHAM HARBOR             28     160/ 12/ 17   N/A
CALUMET HARBOR             26     150/ 11/ 14 1020.3F
BURNS HARBOR               26     140/ 15/ 21 1021.3F
$$

ILZ025>027-034>036-040-047-049-050-058-095>099-111200-
WEST-CENTRAL ILLINOIS

CITY           SKY/WX    TMP DP  RH WIND       PRES   REMARKS
QUINCY         CLOUDY    35  19  52 SE8       29.95F WCI  29
GALESBURG*     CLOUDY    31  24  74 SE6       29.97F WCI  25
MACOMB*        CLOUDY    33  22  65 S10       30.00F WCI  24
JACKSONVILLE*  CLOUDY    35  20  54 SE9       30.00F WCI  27
PITTSFIELD*    CLOUDY    36  20  51 SE9       29.98F WCI  29
$$

ILZ028>032-037-038-041>044-048-051>054-059>061-111200-
CENTRAL ILLINOIS

CITY           SKY/WX    TMP DP  RH WIND       PRES   REMARKS
PONTIAC        CLOUDY    29  25  85 SE15      30.08F WCI  18
BLOOMINGTON    CLOUDY    29  23  78 SE15      30.05F WCI  18
DECATUR        CLOUDY    34  20  56 S9        30.07F WCI  27
PEORIA         CLOUDY    32  22  66 SE7       30.02F WCI  26
LACON*         CLOUDY    30  23  75 SE9       30.03F WCI  22
LINCOLN*       CLOUDY    34  23  64 S10G16    30.04F WCI  26
SPRINGFIELD    CLOUDY    36  21  54 S12       30.04F WCI  28
TAYLORVILLE    CLOUDY    35  20  54 S6G17     30.05F WCI  29
$$

ILZ033-039-045-046-055>057-062-063-111200-
EAST-CENTRAL ILLINOIS

CITY           SKY/WX    TMP DP  RH WIND       PRES   REMARKS
CHAMPAIGN      CLOUDY    31  21  66 SE14      30.09F WCI  21
RANTOUL*       CLOUDY    31  24  74 SE13      30.09F WCI  22
MATTOON        CLOUDY    32  19  58 S14       30.10F WCI  22
PARIS*         CLOUDY    31  22  67 SE13      30.15F WCI  22
$$

ILZ079-100>102-111200-
SOUTHWEST ILLINOIS

CITY           SKY/WX    TMP DP  RH WIND       PRES   REMARKS
ALTON          CLOUDY    38  19  46 SE13      30.03F WCI  30
BELLEVILLE     CLOUDY    39  20  46 S12       30.04F WCI  32
CAHOKIA*       CLOUDY    38  20  48 SE8       30.04F WCI  32
SPARTA*        CLOUDY    38  20  48 S21G28    30.07F WCI  28
$$

ILZ064>066-069>071-074>076-080>082-084>086-088>090-092>094-111200-
SOUTH-CENTRAL ILLINOIS

CITY           SKY/WX    TMP DP  RH WIND       PRES   REMARKS
CARBONDALE     CLOUDY    40  19  43 S15       30.13F
CAIRO*         CLOUDY    39  21  48 S15       30.17F WCI  31
EFFINGHAM*     CLOUDY    35  23  61 SE8       30.13F WCI  28
MARION         CLOUDY    41  19  42 S12       30.15S
CENTRALIA*     CLOUDY    39  20  47 S13       30.10F WCI  31
SALEM*         CLOUDY    40  17  40 S12       30.10F
METROPOLIS*    CLOUDY    40  18  40 S8        30.18F
$$

ILZ067-068-072-073-078-083-087-091-111200-
SOUTHEAST ILLINOIS

CITY           SKY/WX    TMP DP  RH WIND       PRES   REMARKS
LAWRENCEVILLE  CLOUDY    34  21  59 SE10      30.18F WCI  26
FLORA*         CLOUDY    36  23  60 SE12      30.14F WCI  27
FAIRFIELD*     CLOUDY    36  22  58 SE6       30.14F WCI  31
HARRISBURG*    CLOUDY    38  22  50 S12G18    30.16F WCI  31
ROBINSON*      CLOUDY    32  21  63 S9        30.19S WCI  24
CARMI*         CLOUDY    35  24  66 SE12      30.16F WCI  26
$$

ABBREVIATIONS USED IN REMARKS
   TC - TEMPERATURE IN CELSIUS
  WCI - WIND CHILL INDEX
   HX - HEAT INDEX
  VSB - VISIBILITY
$$




USA.gov is the U.S. government's official web portal to all federal, state and local government web resources and services.